Regional Weather Roundup
Issued by NWS

Home | Current Version | Previous Version | Text Only | Print | Product List | Glossary Off
Versions: 1 2 3 4 5 6 7 8 9 10 11 12 13 14 15 16 17 18 19 20 21 22 23 24 25 26 27 28 29 30 31 32 33 34 35 36 37 38 39 40 41 42 43 44 45 46 47 48 49 50

000
ASUS43 KDMX 301108
RWRIA

WEATHER ROUNDUP FOR IOWA
NATIONAL WEATHER SERVICE DES MOINES IA
600 AM CDT SAT JUL 30 2016

NOTE: "FAIR" INDICATES FEW OR NO CLOUDS BELOW 12,000 FEET WITH NO
SIGNIFICANT WEATHER AND/OR OBSTRUCTIONS TO VISIBILITY.

* - THESE STATIONS ARE NOT NWS STATIONS...THUS NOT UNDER NWS
QUALITY CONTROL.  THEY ALSO DO NOT REPORT WEATHER SUCH
AS PRECIPITATION OR FOG.

IAZ001>003-012>014-020>022-031>034-043>046-301200-
   NORTHWEST IOWA

CITY           SKY/WX    TMP DP  RH WIND       PRES   REMARKS
CARROLL *      CLEAR     61  61 100 NW3       30.02S
CHEROKEE *     CLEAR     56  56 100 CALM      30.03S FOG
DENISON *      CLEAR     57  57 100 CALM      30.01S FOG
LE MARS *      CLEAR     57  55  94 CALM      30.03F
SHELDON *      CLEAR     52  52 100 CALM      30.02F
SIOUX CITY     CLEAR     61  59  93 E3        30.01F
SPENCER        CLEAR     52  50  93 CALM      30.03F
STORM LAKE *   CLEAR     59  57  94 N6        30.04R
$$

IAZ055>058-069>071-079>083-090>094-301200-
   SOUTHWEST IOWA

CITY           SKY/WX    TMP DP  RH WIND       PRES   REMARKS
ATLANTIC *     CLEAR     59  59 100 N5        30.02S
CLARINDA *       N/A     59  59 100 MISG      30.04S
COUNCIL BLFS *   N/A     63  61  94 CALM      30.01F
CRESTON *      PTCLDY    63  61  94 N7        30.03S
HARLAN  *      CLEAR     57  57 100 CALM      30.05F
LAMONI         CLEAR     62  61  96 N6        30.01S
RED OAK *      CLEAR     59  59 100 CALM      30.01F
SHENANDOAH *   FOG       57  57 100 CALM      30.02S VSB 1/4
$$

IAZ047>049-059>061-072>074-084-301200-
   CENTRAL IOWA

CITY           SKY/WX    TMP DP  RH WIND       PRES   REMARKS
AMES           CLOUDY    64  64 100 NW3       30.01S
ANKENY *         N/A    N/A N/A N/A MISG        N/A
BOONE *          N/A     63  63 100 N6        30.01S
CHARITON *       N/A    N/A N/A N/A MISG        N/A
DES MOINES     DRIZZLE   68  65  90 NW6       30.00R
GRINNELL*      CLOUDY    65  64  96 CALM      30.01R FOG
KNOXVILLE *    MOCLDY    64  63  94 NW7       29.99S
MARSHALLTOWN   CLOUDY    61  61 100 N3        30.00R FOG
NEWTON *       CLOUDY    66  66 100 N5        30.00R
PELLA *        MOCLDY    65  64  96 CALM      30.01R FOG
PERRY *        CLOUDY    64  64  99 NE3       30.01F
$$

IAZ004>006-015-016-023>025-035-036-301200-
   NORTH CENTRAL IOWA

CITY           SKY/WX    TMP DP  RH WIND       PRES   REMARKS
ALGONA *       CLOUDY    63  59  88 N5        30.03S
ESTHERVILLE    PTCLDY    55  54  96 CALM      30.03S
FORT DODGE *   CLOUDY    64  63  94 CALM      30.02F
MASON CITY     MOCLDY    62  60  93 N3        30.03S
FOREST CITY *  CLOUDY    63  63 100 CALM      30.03S
IOWA FALLS *   CLOUDY    64  62  96 CALM      30.03S
$$

IAZ007>011-017>019-026>030-037>042-050>054-066-301200-
   NORTHEAST IOWA

CITY           SKY/WX    TMP DP  RH WIND       PRES   REMARKS
CEDAR RAPIDS   CLOUDY    67  66  97 NE7       29.99R
CHARLES CITY * CLOUDY    64  64 100 CALM      30.02S FOG
CLINTON *      CLOUDY    66  65  96 N7        29.97S
DECORAH *      CLOUDY    64  64 100 CALM      30.01R
DUBUQUE        PTCLDY    64  62  93 NE7       30.00R
MONTICELLO *   CLOUDY    66  66 100 CALM      29.99R
OELWEIN *      PTCLDY    63  63 100 NE5       30.02R FOG
WATERLOO       MOCLDY    63  61  93 N5        30.00R FOG
$$

IAZ064-065-067-068-078-301200-
   EAST CENTRAL IOWA

CITY           SKY/WX    TMP DP  RH WIND       PRES   REMARKS
DAVENPORT      MOCLDY    67  65  93 NE6       29.97S
IOWA CITY      CLOUDY    68  66  93 NE7       29.99S
MT. PLEASANT * CLOUDY    70  70 100 CALM      29.98R FOG
MUSCATINE *    CLOUDY    68  66  94 N7        29.97R
QUAD CITIES    CLOUDY    71  65  81 CALM      29.96S
$$

IAZ062-063-075>077-085>089-095>099-301200-
   SOUTHEAST IOWA

CITY           SKY/WX    TMP DP  RH WIND       PRES   REMARKS
BURLINGTON     CLOUDY    68  68 100 NW3       29.96R
FAIRFIELD *    CLOUDY    68  66  94 CALM      29.98R FOG
KEOKUK *       CLOUDY    68  66  94 NW6       29.97R FOG
CENTERVILLE *  CLOUDY    66  64  94 CALM      30.01S
OTTUMWA        CLOUDY    66  65  96 NW6       29.99R
WASHINGTON *   CLOUDY    68  66  94 N5        29.99R FOG
$$

ABBREVIATIONS USED IN REMARKS
   TC - TEMPERATURES IN CELSIUS
  WCI - WIND CHILL INDEX
   HX - HEAT INDEX
  VSB - VISIBILITY
$$




USA.gov is the U.S. government's official web portal to all federal, state and local government web resources and services.